Time,TemperatureF,DewpointF,PressureIn,WindDirection,WindDirectionDegrees,WindSpeedMPH,WindSpeedGustMPH,Humidity,HourlyPrecipIn,Conditions,Clouds,dailyrainin,SoftwareType,DateUTC
2013-04-08 00:05:00,36.3,29.5,29.84,SE,129,3.0,9.0,76,0.00,,,0.00,Wunderground v.1.13,2013-04-08 05:05:00,
2013-04-08 00:15:00,36.3,29.5,29.84,East,95,4.0,4.0,76,0.00,,,0.00,Wunderground v.1.13,2013-04-08 05:15:00,
2013-04-08 00:25:00,36.3,29.5,29.83,East,90,3.0,3.0,76,0.00,,,0.00,Wunderground v.1.13,2013-04-08 05:25:00,
2013-04-08 00:30:00,36.2,29.4,29.83,East,88,2.0,2.0,76,0.00,,,0.00,Wunderground v.1.13,2013-04-08 05:30:00,
2013-04-08 00:40:00,36.2,29.4,29.83,East,95,2.0,11.0,76,0.00,,,0.00,Wunderground v.1.13,2013-04-08 05:40:00,
2013-04-08 00:45:00,36.2,29.4,29.83,ESE,109,2.0,2.0,76,0.00,,,0.00,Wunderground v.1.13,2013-04-08 05:45:00,
2013-04-08 00:50:00,36.2,29.0,29.84,ESE,112,1.0,11.0,75,0.00,,,0.00,Wunderground v.1.13,2013-04-08 05:50:00,
2013-04-08 01:00:00,36.2,29.0,29.84,SE,139,2.0,2.0,75,0.00,,,0.00,Wunderground v.1.13,2013-04-08 06:00:00,
2013-04-08 01:05:00,36.2,29.0,29.83,East,99,2.0,2.0,75,0.00,,,0.00,Wunderground v.1.13,2013-04-08 06:05:00,
2013-04-08 01:15:00,36.3,29.1,29.83,ESE,103,2.0,12.0,75,0.00,,,0.00,Wunderground v.1.13,2013-04-08 06:15:00,
2013-04-08 01:20:00,36.3,28.8,29.81,East,100,3.0,12.0,74,0.00,,,0.00,Wunderground v.1.13,2013-04-08 06:20:00,
2013-04-08 01:30:00,36.5,29.0,29.81,East,90,5.0,5.0,74,0.00,,,0.00,Wunderground v.1.13,2013-04-08 06:30:00,
2013-04-08 01:35:00,36.5,29.0,29.81,East,97,3.0,10.0,74,0.00,,,0.00,Wunderground v.1.13,2013-04-08 06:35:00,
2013-04-08 01:45:00,36.8,29.3,29.81,SE,125,2.0,2.0,74,0.00,,,0.00,Wunderground v.1.13,2013-04-08 06:45:00,
2013-04-08 01:55:00,37.0,29.5,29.81,NE,55,3.0,3.0,74,0.00,,,0.00,Wunderground v.1.13,2013-04-08 06:55:00,
2013-04-08 02:00:00,37.0,29.1,29.81,ESE,104,3.0,3.0,73,0.00,,,0.00,Wunderground v.1.13,2013-04-08 07:00:00,
2013-04-08 02:05:00,37.2,29.3,29.81,ESE,111,2.0,2.0,73,0.00,,,0.00,Wunderground v.1.13,2013-04-08 07:05:00,
2013-04-08 02:15:00,37.3,29.4,29.81,SE,129,2.0,2.0,73,0.00,,,0.00,Wunderground v.1.13,2013-04-08 07:15:00,
2013-04-08 02:20:00,37.5,29.6,29.79,ESE,114,2.0,2.0,73,0.00,,,0.00,Wunderground v.1.13,2013-04-08 07:20:00,
2013-04-08 02:30:00,37.5,29.6,29.79,East,98,2.0,2.0,73,0.00,,,0.00,Wunderground v.1.13,2013-04-08 07:30:00,
2013-04-08 02:40:00,37.5,29.6,29.78,East,99,2.0,2.0,73,0.00,,,0.00,Wunderground v.1.13,2013-04-08 07:40:00,
2013-04-08 02:45:00,37.5,30.0,29.78,East,98,2.0,12.0,74,0.00,,,0.00,Wunderground v.1.13,2013-04-08 07:45:00,
2013-04-08 02:55:00,37.6,30.1,29.76,East,101,3.0,12.0,74,0.00,,,0.00,Wunderground v.1.13,2013-04-08 07:55:00,
2013-04-08 03:05:00,37.6,30.1,29.75,East,93,3.0,3.0,74,0.00,,,0.00,Wunderground v.1.13,2013-04-08 08:05:00,
2013-04-08 03:15:00,37.8,30.3,29.75,ESE,111,3.0,11.0,74,0.00,,,0.00,Wunderground v.1.13,2013-04-08 08:15:00,
2013-04-08 03:25:00,37.9,30.0,29.74,ESE,122,4.0,11.0,73,0.00,,,0.00,Wunderground v.1.13,2013-04-08 08:25:00,
2013-04-08 03:30:00,38.0,30.1,29.74,ESE,105,4.0,4.0,73,0.00,,,0.00,Wunderground v.1.13,2013-04-08 08:30:00,
2013-04-08 03:40:00,38.0,30.4,29.74,ESE,114,3.0,3.0,74,0.00,,,0.00,Wunderground v.1.13,2013-04-08 08:40:00,
2013-04-08 03:45:00,38.0,30.4,29.74,East,90,2.0,2.0,74,0.00,,,0.00,Wunderground v.1.13,2013-04-08 08:45:00,
2013-04-08 03:55:00,38.2,30.6,29.74,ESE,107,3.0,3.0,74,0.00,,,0.00,Wunderground v.1.13,2013-04-08 08:55:00,
2013-04-08 04:00:00,38.3,30.7,29.74,East,92,4.0,10.0,74,0.00,,,0.00,Wunderground v.1.13,2013-04-08 09:00:00,
2013-04-08 04:05:00,38.3,30.7,29.73,East,100,5.0,13.0,74,0.00,,,0.00,Wunderground v.1.13,2013-04-08 09:05:00,
2013-04-08 04:15:00,38.5,30.9,29.73,ESE,113,3.0,13.0,74,0.00,,,0.00,Wunderground v.1.13,2013-04-08 09:15:00,
2013-04-08 04:20:00,38.5,30.9,29.72,ESE,118,3.0,13.0,74,0.00,,,0.00,Wunderground v.1.13,2013-04-08 09:20:00,
2013-04-08 04:40:00,38.8,31.2,29.71,ESE,105,2.0,2.0,74,0.00,,,0.00,Wunderground v.1.13,2013-04-08 09:40:00,
2013-04-08 04:50:00,39.2,31.6,29.70,ESE,103,4.0,4.0,74,0.00,,,0.00,Wunderground v.1.13,2013-04-08 09:50:00,
2013-04-08 04:55:00,39.2,31.6,29.70,ESE,107,4.0,4.0,74,0.00,,,0.00,Wunderground v.1.13,2013-04-08 09:55:00,
2013-04-08 05:00:00,39.3,31.7,29.70,ESE,111,3.0,15.0,74,0.00,,,0.00,Wunderground v.1.13,2013-04-08 10:00:00,
2013-04-08 05:05:00,39.5,31.9,29.68,ESE,109,4.0,15.0,74,0.00,,,0.00,Wunderground v.1.13,2013-04-08 10:05:00,
2013-04-08 05:15:00,39.9,32.3,29.68,East,100,4.0,4.0,74,0.00,,,0.00,Wunderground v.1.13,2013-04-08 10:15:00,
2013-04-08 05:25:00,40.5,32.9,29.68,East,93,4.0,15.0,74,0.00,,,0.00,Wunderground v.1.13,2013-04-08 10:25:00,
2013-04-08 05:30:00,40.8,33.2,29.68,East,93,4.0,4.0,74,0.00,,,0.00,Wunderground v.1.13,2013-04-08 10:30:00,
2013-04-08 05:40:00,41.1,33.4,29.67,ESE,105,4.0,4.0,74,0.00,,,0.00,Wunderground v.1.13,2013-04-08 10:40:00,
2013-04-08 05:50:00,41.5,33.5,29.66,ESE,121,3.0,3.0,73,0.00,,,0.00,Wunderground v.1.13,2013-04-08 10:50:00,
2013-04-08 05:55:00,41.6,33.6,29.66,East,99,2.0,2.0,73,0.00,,,0.00,Wunderground v.1.13,2013-04-08 10:55:00,
2013-04-08 06:05:00,42.1,33.7,29.65,ESE,108,5.0,5.0,72,0.00,,,0.00,Wunderground v.1.13,2013-04-08 11:05:00,
2013-04-08 06:15:00,42.2,33.5,29.65,East,92,4.0,12.0,71,0.00,,,0.00,Wunderground v.1.13,2013-04-08 11:15:00,
2013-04-08 06:25:00,42.5,33.8,29.65,East,85,3.0,12.0,71,0.00,,,0.00,Wunderground v.1.13,2013-04-08 11:25:00,
2013-04-08 06:35:00,42.5,33.8,29.64,East,98,4.0,4.0,71,0.00,,,0.00,Wunderground v.1.13,2013-04-08 11:35:00,
2013-04-08 06:45:00,42.2,35.2,29.64,ESE,113,2.0,2.0,76,0.00,,,0.01,Wunderground v.1.13,2013-04-08 11:45:00,
2013-04-08 06:50:00,41.9,35.5,29.65,East,101,2.0,12.0,78,0.00,,,0.01,Wunderground v.1.13,2013-04-08 11:50:00,
2013-04-08 06:55:00,41.9,35.9,29.65,ESE,103,2.0,2.0,79,0.00,,,0.01,Wunderground v.1.13,2013-04-08 11:55:00,
2013-04-08 07:05:00,41.9,35.5,29.63,ENE,76,2.0,12.0,78,0.00,,,0.01,Wunderground v.1.13,2013-04-08 12:05:00,
2013-04-08 07:15:00,41.8,35.4,29.63,East,97,4.0,12.0,78,0.00,,,0.01,Wunderground v.1.13,2013-04-08 12:15:00,
2013-04-08 07:20:00,41.6,35.6,29.63,East,101,4.0,12.0,79,0.00,,,0.01,Wunderground v.1.13,2013-04-08 12:20:00,
2013-04-08 07:25:00,41.5,35.5,29.63,ESE,107,5.0,5.0,79,0.00,,,0.01,Wunderground v.1.13,2013-04-08 12:25:00,
2013-04-08 07:35:00,41.1,35.7,29.63,ESE,102,3.0,3.0,81,0.00,,,0.02,Wunderground v.1.13,2013-04-08 12:35:00,
2013-04-08 07:40:00,40.9,36.1,29.63,East,100,2.0,2.0,83,0.07,,,0.03,Wunderground v.1.13,2013-04-08 12:40:00,
2013-04-08 07:50:00,40.6,36.4,29.64,East,99,1.0,1.0,85,0.15,,,0.05,Wunderground v.1.13,2013-04-08 12:50:00,
2013-04-08 07:55:00,40.5,36.6,29.64,East,99,0.0,8.0,86,0.12,,,0.06,Wunderground v.1.13,2013-04-08 12:55:00,
2013-04-08 08:00:00,40.3,36.7,29.64,East,86,1.0,1.0,87,0.17,,,0.07,Wunderground v.1.13,2013-04-08 13:00:00,
2013-04-08 08:05:00,40.2,36.9,29.64,East,97,1.0,11.0,88,0.29,,,0.10,Wunderground v.1.13,2013-04-08 13:05:00,
2013-04-08 08:15:00,39.9,36.9,29.64,East,90,1.0,11.0,89,0.40,,,0.16,Wunderground v.1.13,2013-04-08 13:15:00,
2013-04-08 08:25:00,39.8,37.1,29.63,NE,50,1.0,1.0,90,0.19,,,0.20,Wunderground v.1.13,2013-04-08 13:25:00,
2013-04-08 08:35:00,39.5,37.1,29.62,NNE,32,2.0,7.0,91,0.27,,,0.25,Wunderground v.1.13,2013-04-08 13:35:00,
2013-04-08 08:40:00,39.5,37.1,29.62,NNE,32,2.0,2.0,91,0.18,,,0.27,Wunderground v.1.13,2013-04-08 13:40:00,
2013-04-08 08:50:00,39.3,37.2,29.61,NNE,30,3.0,7.0,92,0.16,,,0.29,Wunderground v.1.13,2013-04-08 13:50:00,
2013-04-08 08:55:00,39.3,37.2,29.61,NE,34,4.0,4.0,92,0.12,,,0.31,Wunderground v.1.13,2013-04-08 13:55:00,
2013-04-08 09:00:00,39.5,37.4,29.61,NE,38,4.0,4.0,92,0.12,,,0.32,Wunderground v.1.13,2013-04-08 14:00:00,
2013-04-08 09:05:00,39.5,37.6,29.59,ENE,70,4.0,7.0,93,0.18,,,0.33,Wunderground v.1.13,2013-04-08 14:05:00,
2013-04-08 09:15:00,39.5,37.6,29.59,NE,56,5.0,7.0,93,0.17,,,0.36,Wunderground v.1.13,2013-04-08 14:15:00,
2013-04-08 09:25:00,39.3,37.4,29.57,NNE,24,7.0,7.0,93,0.10,,,0.38,Wunderground v.1.13,2013-04-08 14:25:00,
2013-04-08 09:30:00,39.3,37.4,29.57,North,360,7.0,7.0,93,0.11,,,0.39,Wunderground v.1.13,2013-04-08 14:30:00,
2013-04-08 09:40:00,39.2,37.6,29.56,NE,41,7.0,7.0,94,0.17,,,0.41,Wunderground v.1.13,2013-04-08 14:40:00,
2013-04-08 09:45:00,39.2,37.6,29.56,NNE,29,6.0,12.0,94,0.14,,,0.42,Wunderground v.1.13,2013-04-08 14:45:00,
2013-04-08 09:55:00,39.3,37.7,29.56,NE,41,5.0,12.0,94,0.30,,,0.45,Wunderground v.1.13,2013-04-08 14:55:00,
2013-04-08 10:05:00,39.5,37.9,29.57,NNE,25,6.0,16.0,94,0.14,,,0.47,Wunderground v.1.13,2013-04-08 15:05:00,
2013-04-08 10:15:00,39.6,38.3,29.57,North,9,5.0,16.0,95,0.08,,,0.48,Wunderground v.1.13,2013-04-08 15:15:00,
2013-04-08 10:20:00,39.8,38.5,29.58,North,360,5.0,5.0,95,0.09,,,0.49,Wunderground v.1.13,2013-04-08 15:20:00,
2013-04-08 10:25:00,39.8,38.5,29.58,NNW,346,4.0,16.0,95,0.07,,,0.49,Wunderground v.1.13,2013-04-08 15:25:00,
2013-04-08 10:30:00,39.9,38.6,29.58,NNW,346,3.0,16.0,95,0.05,,,0.50,Wunderground v.1.13,2013-04-08 15:30:00,
2013-04-08 10:40:00,40.1,38.8,29.58,NNE,15,4.0,14.0,95,0.06,,,0.51,Wunderground v.1.13,2013-04-08 15:40:00,
2013-04-08 10:50:00,40.1,38.8,29.58,NNW,348,4.0,4.0,95,0.05,,,0.51,Wunderground v.1.13,2013-04-08 15:50:00,
2013-04-08 11:00:00,40.2,38.9,29.58,NNE,13,4.0,14.0,95,0.00,,,0.51,Wunderground v.1.13,2013-04-08 16:00:00,
2013-04-08 11:05:00,40.1,38.8,29.57,NNE,26,5.0,10.0,95,0.00,,,0.51,Wunderground v.1.13,2013-04-08 16:05:00,
2013-04-08 11:15:00,40.1,38.8,29.57,NNE,26,6.0,10.0,95,0.00,,,0.51,Wunderground v.1.13,2013-04-08 16:15:00,
2013-04-08 11:20:00,40.1,38.8,29.58,North,5,6.0,6.0,95,0.00,,,0.51,Wunderground v.1.13,2013-04-08 16:20:00,
2013-04-08 11:25:00,40.1,38.8,29.58,NNW,342,6.0,10.0,95,0.00,,,0.51,Wunderground v.1.13,2013-04-08 16:25:00,
2013-04-08 11:30:00,40.2,38.9,29.58,North,5,5.0,10.0,95,0.00,,,0.51,Wunderground v.1.13,2013-04-08 16:30:00,
2013-04-08 11:40:00,40.3,39.0,29.63,NW,313,4.0,18.0,95,0.00,,,0.51,Wunderground v.1.13,2013-04-08 16:40:00,
2013-04-08 11:45:00,40.3,39.0,29.63,NW,314,4.0,18.0,95,0.00,,,0.51,Wunderground v.1.13,2013-04-08 16:45:00,
2013-04-08 11:55:00,40.3,39.0,29.63,NW,319,4.0,18.0,95,0.00,,,0.51,Wunderground v.1.13,2013-04-08 16:55:00,
2013-04-08 12:05:00,40.3,39.0,29.64,WNW,291,4.0,4.0,95,0.00,,,0.51,Wunderground v.1.13,2013-04-08 17:05:00,
2013-04-08 12:15:00,40.3,39.0,29.64,NW,305,6.0,6.0,95,0.00,,,0.51,Wunderground v.1.13,2013-04-08 17:15:00,
2013-04-08 12:20:00,40.3,39.0,29.66,WNW,294,7.0,15.0,95,0.00,,,0.51,Wunderground v.1.13,2013-04-08 17:20:00,
2013-04-08 12:25:00,40.5,39.2,29.66,NW,311,6.0,6.0,95,0.00,,,0.51,Wunderground v.1.13,2013-04-08 17:25:00,
2013-04-08 12:35:00,40.8,39.5,29.68,NW,312,4.0,12.0,95,0.00,,,0.51,Wunderground v.1.13,2013-04-08 17:35:00,
2013-04-08 12:45:00,40.6,39.3,29.68,NW,312,6.0,6.0,95,0.00,,,0.51,Wunderground v.1.13,2013-04-08 17:45:00,
2013-04-08 12:55:00,40.6,39.3,29.68,North,355,6.0,6.0,95,0.00,,,0.51,Wunderground v.1.13,2013-04-08 17:55:00,
2013-04-08 13:00:00,40.6,39.0,29.68,NW,307,5.0,12.0,94,0.00,,,0.51,Wunderground v.1.13,2013-04-08 18:00:00,
2013-04-08 13:05:00,40.6,39.0,29.70,West,277,5.0,13.0,94,0.00,,,0.51,Wunderground v.1.13,2013-04-08 18:05:00,
2013-04-08 13:15:00,40.6,39.3,29.70,NNW,329,6.0,13.0,95,0.00,,,0.51,Wunderground v.1.13,2013-04-08 18:15:00,
2013-04-08 13:20:00,40.8,39.5,29.70,NW,307,6.0,13.0,95,0.00,,,0.51,Wunderground v.1.13,2013-04-08 18:20:00,
2013-04-08 13:30:00,41.2,39.6,29.70,NW,319,7.0,7.0,94,0.00,,,0.51,Wunderground v.1.13,2013-04-08 18:30:00,
2013-04-08 13:40:00,41.5,39.9,29.72,WNW,302,7.0,14.0,94,0.00,,,0.51,Wunderground v.1.13,2013-04-08 18:40:00,
2013-04-08 13:50:00,42.1,40.5,29.71,NW,317,7.0,7.0,94,0.00,,,0.51,Wunderground v.1.13,2013-04-08 18:50:00,
2013-04-08 14:00:00,42.9,41.0,29.71,North,355,5.0,5.0,93,0.00,,,0.51,Wunderground v.1.13,2013-04-08 19:00:00,
2013-04-08 14:05:00,43.6,41.7,29.71,NNW,337,4.0,4.0,93,0.00,,,0.51,Wunderground v.1.13,2013-04-08 19:05:00,
2013-04-08 14:15:00,44.1,41.9,29.71,NW,325,3.0,3.0,92,0.00,,,0.51,Wunderground v.1.13,2013-04-08 19:15:00,
2013-04-08 14:25:00,44.6,42.1,29.71,NNW,330,3.0,16.0,91,0.00,,,0.51,Wunderground v.1.13,2013-04-08 19:25:00,
2013-04-08 14:30:00,44.9,42.1,29.71,NNW,327,3.0,3.0,90,0.00,,,0.51,Wunderground v.1.13,2013-04-08 19:30:00,
2013-04-08 14:40:00,45.2,41.9,29.72,NW,326,3.0,14.0,88,0.00,,,0.51,Wunderground v.1.13,2013-04-08 19:40:00,
2013-04-08 14:50:00,45.1,41.5,29.73,NW,313,4.0,14.0,87,0.00,,,0.51,Wunderground v.1.13,2013-04-08 19:50:00,
2013-04-08 14:55:00,44.9,41.3,29.73,NW,313,3.0,14.0,87,0.00,,,0.51,Wunderground v.1.13,2013-04-08 19:55:00,
2013-04-08 15:05:00,44.8,41.2,29.73,NW,313,2.0,11.0,87,0.00,,,0.51,Wunderground v.1.13,2013-04-08 20:05:00,
2013-04-08 15:15:00,44.9,41.3,29.73,NNE,15,3.0,11.0,87,0.00,,,0.51,Wunderground v.1.13,2013-04-08 20:15:00,
2013-04-08 15:25:00,45.1,41.5,29.72,North,5,4.0,11.0,87,0.00,,,0.51,Wunderground v.1.13,2013-04-08 20:25:00,
2013-04-08 15:30:00,45.4,41.8,29.72,North,5,4.0,4.0,87,0.00,,,0.51,Wunderground v.1.13,2013-04-08 20:30:00,
2013-04-08 15:35:00,45.5,41.9,29.73,North,5,2.0,2.0,87,0.00,,,0.51,Wunderground v.1.13,2013-04-08 20:35:00,
2013-04-08 15:45:00,45.8,41.9,29.73,NW,324,2.0,2.0,86,0.00,,,0.51,Wunderground v.1.13,2013-04-08 20:45:00,
2013-04-08 15:55:00,46.1,41.8,29.74,NW,324,2.0,2.0,85,0.00,,,0.51,Wunderground v.1.13,2013-04-08 20:55:00,
2013-04-08 16:00:00,46.1,41.8,29.74,NW,306,3.0,8.0,85,0.00,,,0.51,Wunderground v.1.13,2013-04-08 21:00:00,
2013-04-08 16:05:00,46.1,41.8,29.75,NW,306,2.0,2.0,85,0.00,,,0.51,Wunderground v.1.13,2013-04-08 21:05:00,
2013-04-08 16:15:00,46.7,42.4,29.75,NNW,341,1.0,1.0,85,0.00,,,0.51,Wunderground v.1.13,2013-04-08 21:15:00,
2013-04-08 16:25:00,46.8,42.2,29.74,NNW,340,1.0,1.0,84,0.00,,,0.51,Wunderground v.1.13,2013-04-08 21:25:00,
2013-04-08 16:35:00,46.8,42.2,29.75,NNW,339,1.0,1.0,84,0.00,,,0.51,Wunderground v.1.13,2013-04-08 21:35:00,
2013-04-08 16:45:00,46.8,42.2,29.75,NNW,339,1.0,1.0,84,0.00,,,0.51,Wunderground v.1.13,2013-04-08 21:45:00,
2013-04-08 16:50:00,46.8,42.2,29.77,NNW,339,0.0,9.0,84,0.00,,,0.51,Wunderground v.1.13,2013-04-08 21:50:00,
2013-04-08 17:00:00,47.0,42.4,29.77,NNW,339,0.0,9.0,84,0.00,,,0.51,Wunderground v.1.13,2013-04-08 22:00:00,
2013-04-08 17:05:00,47.0,42.4,29.77,NNW,339,0.0,8.0,84,0.00,,,0.51,Wunderground v.1.13,2013-04-08 22:05:00,
2013-04-08 17:15:00,47.1,42.2,29.77,NNW,339,1.0,1.0,83,0.00,,,0.51,Wunderground v.1.13,2013-04-08 22:15:00,
2013-04-08 17:20:00,47.0,42.4,29.77,NNW,339,0.0,8.0,84,0.00,,,0.51,Wunderground v.1.13,2013-04-08 22:20:00,
2013-04-08 17:25:00,47.3,42.7,29.77,NNW,339,1.0,8.0,84,0.00,,,0.51,Wunderground v.1.13,2013-04-08 22:25:00,
2013-04-08 17:35:00,47.3,42.4,29.78,North,355,2.0,5.0,83,0.00,,,0.51,Wunderground v.1.13,2013-04-08 22:35:00,
2013-04-08 17:40:00,47.3,42.7,29.78,North,355,1.0,1.0,84,0.00,,,0.51,Wunderground v.1.13,2013-04-08 22:40:00,
2013-04-08 17:45:00,47.3,42.7,29.78,North,355,0.0,5.0,84,0.00,,,0.51,Wunderground v.1.13,2013-04-08 22:45:00,
2013-04-08 17:50:00,47.3,42.7,29.79,NNE,17,1.0,5.0,84,0.00,,,0.51,Wunderground v.1.13,2013-04-08 22:50:00,
2013-04-08 17:55:00,47.3,42.7,29.79,NNE,17,2.0,2.0,84,0.00,,,0.51,Wunderground v.1.13,2013-04-08 22:55:00,
2013-04-08 18:05:00,47.0,42.7,29.79,NNE,17,2.0,8.0,85,0.00,,,0.51,Wunderground v.1.13,2013-04-08 23:05:00,
2013-04-08 18:15:00,46.7,42.4,29.79,NE,46,2.0,8.0,85,0.00,,,0.51,Wunderground v.1.13,2013-04-08 23:15:00,
2013-04-08 18:25:00,46.5,42.5,29.79,NE,50,3.0,3.0,86,0.00,,,0.51,Wunderground v.1.13,2013-04-08 23:25:00,
2013-04-08 18:35:00,46.4,42.4,29.80,NE,38,2.0,2.0,86,0.00,,,0.51,Wunderground v.1.13,2013-04-08 23:35:00,
2013-04-08 18:40:00,46.2,42.2,29.80,NE,37,2.0,2.0,86,0.00,,,0.51,Wunderground v.1.13,2013-04-08 23:40:00,
2013-04-08 18:50:00,46.1,42.1,29.81,NE,37,0.0,7.0,86,0.00,,,0.51,Wunderground v.1.13,2013-04-08 23:50:00,
2013-04-08 18:55:00,46.0,42.0,29.81,NE,37,0.0,7.0,86,0.00,,,0.51,Wunderground v.1.13,2013-04-08 23:55:00,
2013-04-08 19:00:00,45.8,42.2,29.81,NE,34,0.0,7.0,87,0.00,,,0.51,Wunderground v.1.13,2013-04-09 00:00:00,
2013-04-08 19:05:00,45.7,42.1,29.82,NNE,32,0.0,8.0,87,0.00,,,0.51,Wunderground v.1.13,2013-04-09 00:05:00,
2013-04-08 19:20:00,45.5,41.9,29.83,NNE,24,2.0,2.0,87,0.00,,,0.51,Wunderground v.1.13,2013-04-09 00:20:00,
2013-04-08 19:25:00,45.4,41.8,29.83,NNE,24,1.0,1.0,87,0.00,,,0.51,Wunderground v.1.13,2013-04-09 00:25:00,
2013-04-08 19:35:00,45.1,41.8,29.84,NNE,24,1.0,1.0,88,0.00,,,0.51,Wunderground v.1.13,2013-04-09 00:35:00,
2013-04-08 19:45:00,44.9,41.6,29.84,NNE,19,1.0,1.0,88,0.00,,,0.51,Wunderground v.1.13,2013-04-09 00:45:00,
2013-04-08 19:55:00,44.9,41.9,29.85,NNE,19,0.0,6.0,89,0.00,,,0.51,Wunderground v.1.13,2013-04-09 00:55:00,
2013-04-08 20:00:00,44.9,41.9,29.85,NNE,19,0.0,6.0,89,0.00,,,0.51,Wunderground v.1.13,2013-04-09 01:00:00,
2013-04-08 20:05:00,44.9,41.9,29.85,NNE,20,0.0,8.0,89,0.00,,,0.51,Wunderground v.1.13,2013-04-09 01:05:00,
2013-04-08 20:15:00,44.9,41.9,29.85,NNE,20,0.0,8.0,89,0.00,,,0.51,Wunderground v.1.13,2013-04-09 01:15:00,
2013-04-08 20:20:00,44.9,42.1,29.87,NNE,20,0.0,8.0,90,0.00,,,0.51,Wunderground v.1.13,2013-04-09 01:20:00,
2013-04-08 20:25:00,44.9,42.1,29.87,NNE,20,0.0,8.0,90,0.00,,,0.51,Wunderground v.1.13,2013-04-09 01:25:00,
2013-04-08 20:35:00,44.9,42.1,29.87,NNE,20,0.0,6.0,90,0.00,,,0.51,Wunderground v.1.13,2013-04-09 01:35:00,
2013-04-08 20:40:00,44.9,42.1,29.87,NNE,20,0.0,6.0,90,0.00,,,0.51,Wunderground v.1.13,2013-04-09 01:40:00,
2013-04-08 20:50:00,44.9,42.1,29.88,NNE,20,0.0,6.0,90,0.00,,,0.51,Wunderground v.1.13,2013-04-09 01:50:00,
2013-04-08 21:00:00,44.9,42.1,29.88,NNE,20,1.0,1.0,90,0.00,,,0.51,Wunderground v.1.13,2013-04-09 02:00:00,
2013-04-08 21:05:00,44.8,42.0,29.88,NNE,20,1.0,1.0,90,0.00,,,0.51,Wunderground v.1.13,2013-04-09 02:05:00,
2013-04-08 21:15:00,44.6,41.8,29.88,NNE,20,0.0,3.0,90,0.00,,,0.51,Wunderground v.1.13,2013-04-09 02:15:00,
2013-04-08 21:20:00,44.6,41.8,29.89,NNE,20,0.0,3.0,90,0.00,,,0.51,Wunderground v.1.13,2013-04-09 02:20:00,
2013-04-08 21:30:00,44.6,41.8,29.89,NNE,20,0.0,3.0,90,0.00,,,0.51,Wunderground v.1.13,2013-04-09 02:30:00,
2013-04-08 21:40:00,44.5,42.0,29.90,NNE,21,1.0,1.0,91,0.00,,,0.51,Wunderground v.1.13,2013-04-09 02:40:00,
2013-04-08 21:45:00,44.3,41.8,29.90,NNE,21,0.0,6.0,91,0.00,,,0.51,Wunderground v.1.13,2013-04-09 02:45:00,
2013-04-08 21:55:00,44.2,41.7,29.91,NNE,21,0.0,6.0,91,0.00,,,0.51,Wunderground v.1.13,2013-04-09 02:55:00,
2013-04-08 22:00:00,44.2,41.7,29.91,NNE,21,0.0,6.0,91,0.00,,,0.51,Wunderground v.1.13,2013-04-09 03:00:00,
2013-04-08 22:05:00,44.1,41.6,29.91,NNE,21,0.0,6.0,91,0.00,,,0.51,Wunderground v.1.13,2013-04-09 03:05:00,
2013-04-08 22:15:00,43.8,41.3,29.91,NNE,21,1.0,1.0,91,0.00,,,0.51,Wunderground v.1.13,2013-04-09 03:15:00,
2013-04-08 22:20:00,43.6,41.4,29.91,NNE,22,1.0,1.0,92,0.00,,,0.51,Wunderground v.1.13,2013-04-09 03:20:00,
2013-04-08 22:30:00,43.3,41.1,29.91,NNW,348,2.0,7.0,92,0.00,,,0.51,Wunderground v.1.13,2013-04-09 03:30:00,
2013-04-08 22:40:00,43.1,40.9,29.92,NNW,348,1.0,1.0,92,0.00,,,0.51,Wunderground v.1.13,2013-04-09 03:40:00,
2013-04-08 22:45:00,42.8,40.6,29.92,NNW,348,1.0,6.0,92,0.00,,,0.51,Wunderground v.1.13,2013-04-09 03:45:00,
2013-04-08 22:55:00,42.5,40.1,29.92,North,355,3.0,3.0,91,0.00,,,0.51,Wunderground v.1.13,2013-04-09 03:55:00,
2013-04-08 23:05:00,42.1,39.9,29.92,North,355,1.0,1.0,92,0.00,,,0.51,Wunderground v.1.13,2013-04-09 04:05:00,
2013-04-08 23:10:00,42.1,39.9,29.92,NNE,17,2.0,8.0,92,0.00,,,0.51,Wunderground v.1.13,2013-04-09 04:10:00,
2013-04-08 23:15:00,42.1,39.9,29.92,North,360,3.0,8.0,92,0.00,,,0.51,Wunderground v.1.13,2013-04-09 04:15:00,
2013-04-08 23:25:00,42.1,39.9,29.92,NNE,15,2.0,8.0,92,0.00,,,0.51,Wunderground v.1.13,2013-04-09 04:25:00,
2013-04-08 23:35:00,41.6,39.4,29.92,North,360,2.0,2.0,92,0.00,,,0.51,Wunderground v.1.13,2013-04-09 04:35:00,
2013-04-08 23:45:00,41.1,39.0,29.92,North,10,2.0,8.0,92,0.00,,,0.51,Wunderground v.1.13,2013-04-09 04:45:00,
2013-04-08 23:55:00,40.8,38.7,29.93,North,9,2.0,8.0,92,0.00,,,0.51,Wunderground v.1.13,2013-04-09 04:55:00,